AB5KT-1 Weather Reports


Display with metric or nautical units.
time (UTC)temp
F
wind
direction
speed
MPH
gust
MPH
rain 1hr
in
rain 24hr
in
rain mn
in
humidity
%
barometer
mb
20260508045833 66 323 0.0 2.0 0.00 0.00 0.00 69 1015.7
20260508045333 66 323 1.0 4.0 0.00 0.00 0.00 68 1015.7
20260508044833 66 325 0.0 4.0 0.00 0.00 0.00 68 1015.8
20260508044332 65 307 1.0 4.0 0.00 0.00 0.00 68 1016.0
20260508043833 65 321 1.0 4.0 0.00 0.00 0.00 68 1015.9
20260508043333 65 233 0.0 6.0 0.00 0.00 0.00 68 1015.9
20260508042832 65 163 0.0 6.0 0.00 0.00 0.00 67 1015.6
20260508042331 65 163 2.0 8.0 0.00 0.00 0.00 67 1014.9
20260508041830 66 107 3.0 8.0 0.00 0.00 0.00 66 1014.2
20260508041331 66 49 3.0 8.0 0.00 0.00 0.00 66 1014.1
20260508040831 66 51 3.0 11.0 0.00 0.00 0.00 66 1014.2
20260508040331 66 46 4.0 11.0 0.00 0.00 0.00 66 1013.7
20260508035830 66 39 4.0 13.0 0.00 0.00 0.00 65 1013.5
20260508035333 66 38 4.0 10.0 0.00 0.00 0.00 65 1014.1
20260508035329 66 44 3.0 13.0 0.00 0.00 0.00 65 1013.6
20260508034333 66 26 3.0 7.0 0.00 0.00 0.00 64 1014.6
20260508034329 66 94 4.0 10.0 0.00 0.00 0.00 64 1014.3
20260508033329 66 28 3.0 6.0 0.00 0.00 0.00 64 1014.7
20260508032829 67 44 3.0 7.0 0.00 0.00 0.00 65 1014.5
20260508032328 67 34 3.0 7.0 0.00 0.00 0.00 64 1014.5
20260508031829 67 17 2.0 6.0 0.00 0.00 0.00 64 1014.8
20260508031329 67 66 2.0 6.0 0.00 0.00 0.00 64 1015.0
20260508030829 67 355 2.0 7.0 0.00 0.00 0.00 64 1015.4
20260508030327 67 86 3.0 7.0 0.00 0.00 0.00 64 1015.6
20260508025827 67 345 2.0 7.0 0.00 0.00 0.00 65 1015.7
20260508025328 67 0 1.0 4.0 0.00 0.00 0.00 65 1015.8
20260508024827 67 22 1.0 4.0 0.00 0.00 0.00 65 1015.7
20260508024327 67 19 1.0 6.0 0.00 0.00 0.00 65 1015.6
20260508023826 67 26 2.0 6.0 0.00 0.00 0.00 64 1015.1
20260508023332 67 14 1.0 5.0 0.00 0.00 0.00 64 1015.1
20260508023327 67 346 1.0 4.0 0.00 0.00 0.00 64 1015.1
20260508022936 67 25 2.0 6.0 0.00 0.00 0.00 64 1015.1
20260508022827 67 355 1.0 5.0 0.00 0.00 0.00 64 1015.1
20260508021325 67 9 2.0 6.0 0.00 0.00 0.00 64 1015.0
20260508020825 67 12 1.0 6.0 0.00 0.00 0.00 64 1015.1
20260508020325 67 23 1.0 5.0 0.00 0.00 0.00 64 1015.1
20260508015825 67 32 1.0 5.0 0.00 0.00 0.00 64 1014.8
20260508015325 68 19 1.0 5.0 0.00 0.00 0.00 64 1014.7
20260508014825 68 10 1.0 5.0 0.00 0.00 0.00 65 1014.7
20260508014325 68 33 1.0 4.0 0.00 0.00 0.00 65 1014.5
20260508013825 68 0 1.0 4.0 0.00 0.00 0.00 65 1014.5
20260508013325 68 14 0.0 4.0 0.00 0.00 0.00 65 1014.6
20260508012825 68 5 0.0 1.0 0.00 0.00 0.00 66 1014.3
20260508012324 68 5 0.0 2.0 0.00 0.00 0.00 65 1014.2
20260508011823 68 5 1.0 4.0 0.00 0.00 0.00 64 1014.3
20260508011323 68 5 1.0 4.0 0.00 0.00 0.00 64 1014.4
20260508010823 68 13 0.0 9.0 0.00 0.00 0.00 63 1014.2
20260508010323 68 36 1.0 9.0 0.00 0.00 0.00 63 1014.0
20260508005823 68 111 2.0 9.0 0.00 0.00 0.00 63 1013.3
20260508005323 68 103 3.0 9.0 0.00 0.00 0.00 63 1012.9
20260508004825 68 134 4.0 10.0 0.00 0.00 0.00 63 1012.6
20260508004821 68 101 4.0 10.0 0.00 0.00 0.00 63 1012.6
20260508003821 68 84 5.0 11.0 0.00 0.00 0.00 63 1012.5
20260508003321 68 108 4.0 11.0 0.00 0.00 0.00 63 1012.4
20260508002821 68 108 4.0 15.0 0.00 0.00 0.00 63 1012.5
20260508002321 69 102 5.0 15.0 0.00 0.00 0.00 63 1012.3
20260508001821 69 100 5.0 10.0 0.00 0.00 0.00 62 1012.2
20260508001322 69 126 5.0 11.0 0.00 0.00 0.00 62 1012.8
20260508000821 69 57 6.0 12.0 0.00 0.00 0.00 62 1013.2
20260508000321 69 82 5.0 12.0 0.00 0.00 0.00 62 1013.3
20260507235821 69 135 4.0 11.0 0.00 0.00 0.00 62 1013.4
20260507235321 69 116 4.0 11.0 0.00 0.00 0.00 61 1013.7
20260507234819 69 115 4.0 11.0 0.00 0.00 0.00 61 1014.0
20260507234319 69 59 5.0 12.0 0.00 0.00 0.00 61 1014.2
20260507233823 69 40 5.0 12.0 0.00 0.00 0.00 61 1014.4
20260507233819 69 22 4.0 12.0 0.00 0.00 0.00 61 1014.7
20260507232815 69 74 5.0 10.0 0.00 0.00 0.00 61 1014.8
20260507232319 69 44 6.0 13.0 0.00 0.00 0.00 61 1014.9
20260507232315 69 13 6.0 13.0 0.00 0.00 0.00 60 1014.8
20260507231311 70 53 6.0 11.0 0.00 0.00 0.00 61 1014.7
20260507230811 70 23 5.0 11.0 0.00 0.00 0.00 61 1014.8
20260507230311 70 84 4.0 10.0 0.00 0.00 0.00 62 1014.9
20260507225811 70 36 4.0 10.0 0.00 0.00 0.00 62 1015.0
20260507225311 70 34 4.0 9.0 0.00 0.00 0.00 62 1015.4
20260507224812 70 28 5.0 9.0 0.00 0.00 0.00 61 1015.1
20260507224311 70 34 5.0 10.0 0.00 0.00 0.00 61 1015.0
20260507223813 70 323 5.0 10.0 0.00 0.00 0.00 61 1015.1
20260507223809 70 32 5.0 12.0 0.00 0.00 0.00 62 1015.4
20260507223413 70 105 5.0 12.0 0.00 0.00 0.00 62 1015.2
20260507222306 70 11 5.0 10.0 0.00 0.00 0.00 62 1015.6
20260507221806 70 49 5.0 10.0 0.00 0.00 0.00 62 1015.8
20260507221305 70 34 5.0 12.0 0.00 0.00 0.00 62 1015.8
20260507220805 70 329 5.0 12.0 0.00 0.00 0.00 61 1015.8
20260507220309 70 43 5.0 10.0 0.00 0.00 0.00 63 1015.8
20260507220305 70 26 4.0 10.0 0.00 0.00 0.00 63 1015.7
20260507215307 69 47 6.0 15.0 0.00 0.00 0.00 66 1015.1
20260507214303 69 37 5.0 9.0 0.00 0.00 0.00 68 1015.5
20260507213803 68 26 4.0 13.0 0.00 0.00 0.00 68 1015.7
20260507213301 68 15 3.0 13.0 0.00 0.00 0.00 68 1015.9
20260507212802 69 349 5.0 11.0 0.00 0.00 0.00 69 1015.9
20260507212301 69 24 5.0 11.0 0.00 0.00 0.00 69 1015.6
20260507211800 69 21 5.0 11.0 0.00 0.00 0.00 69 1016.1
20260507211259 69 11 5.0 10.0 0.00 0.00 0.00 69 1016.1
20260507210800 69 20 4.0 10.0 0.00 0.00 0.00 69 1016.3
20260507210259 69 331 4.0 9.0 0.00 0.00 0.00 69 1016.4
20260507205757 69 342 5.0 13.0 0.00 0.00 0.00 69 1016.1
20260507205300 69 346 4.0 11.0 0.00 0.00 0.00 69 1016.1
20260507205256 69 22 5.0 13.0 0.00 0.00 0.00 69 1016.2
20260507204254 69 350 3.0 11.0 0.00 0.00 0.00 70 1016.4
20260507203757 69 62 6.0 12.0 0.00 0.00 0.00 70 1015.9
20260507203753 69 346 5.0 11.0 0.00 0.00 0.00 70 1016.3
20260507202751 69 16 6.0 12.0 0.00 0.00 0.00 70 1015.7
20260507202249 68 82 5.0 12.0 0.00 0.00 0.00 72 1015.5
20260507201751 68 52 5.0 13.0 0.00 0.00 0.00 72 1015.8
20260507201746 68 55 6.0 13.0 0.00 0.00 0.00 71 1016.2
20260507200744 68 18 6.0 13.0 0.00 0.00 0.00 71 1016.4
20260507200243 68 18 6.0 14.0 0.00 0.00 0.00 71 1015.8
20260507195744 67 26 7.0 18.0 0.00 0.00 0.00 72 1015.8
20260507195740 67 9 7.0 18.0 0.00 0.00 0.00 73 1015.7
20260507194842 66 24 6.0 13.0 0.00 0.00 0.00 74 1016.4
20260507194742 66 14 5.0 12.0 0.00 0.00 0.00 74 1016.1
20260507194738 66 355 6.0 15.0 0.00 0.00 0.00 74 1015.9
20260507193237 66 292 6.0 13.0 0.00 0.00 0.00 74 1016.5
20260507192741 66 19 6.0 14.0 0.00 0.00 0.00 73 1016.0
20260507192737 66 21 6.0 14.0 0.00 0.00 0.00 73 1016.2
20260507191737 66 61 5.0 12.0 0.00 0.00 0.00 73 1016.4
20260507191236 67 340 5.0 10.0 0.00 0.00 0.00 73 1017.0
20260507190739 67 347 3.0 12.0 0.00 0.00 0.00 74 1016.6
20260507190735 67 10 5.0 12.0 0.00 0.00 0.00 75 1016.6
20260507185740 66 111 4.0 10.0 0.00 0.00 0.00 74 1016.2
20260507185735 66 338 4.0 9.0 0.00 0.00 0.00 74 1016.5
20260507184738 66 94 5.0 18.0 0.00 0.00 0.00 75 1016.0
20260507184733 66 42 4.0 14.0 0.00 0.00 0.00 74 1016.0
20260507183734 65 119 7.0 18.0 0.00 0.00 0.00 75 1016.1
20260507183233 65 59 6.0 18.0 0.00 0.00 0.00 75 1016.2
20260507182733 65 109 5.0 12.0 0.00 0.00 0.00 76 1016.6
20260507182233 65 22 5.0 12.0 0.00 0.00 0.00 76 1016.6
20260507181734 65 49 6.0 13.0 0.00 0.00 0.00 76 1016.7
20260507181231 65 11 5.0 13.0 0.00 0.00 0.00 76 1016.9
20260507180734 64 355 5.0 12.0 0.00 0.00 0.00 76 1017.3
20260507180730 64 90 5.0 10.0 0.00 0.00 0.00 76 1017.2
20260507175729 64 32 5.0 12.0 0.00 0.00 0.00 76 1017.5
20260507175230 64 344 6.0 13.0 0.00 0.00 0.00 76 1017.5
20260507174734 64 28 5.0 10.0 0.00 0.00 0.00 76 1017.7
20260507174730 64 40 5.0 13.0 0.00 0.00 0.00 76 1017.6
20260507173729 64 34 5.0 12.0 0.00 0.00 0.00 75 1017.8
20260507173229 65 13 5.0 13.0 0.00 0.00 0.00 75 1017.8
20260507172730 65 46 5.0 13.0 0.00 0.00 0.00 75 1017.7
20260507172229 65 331 5.0 13.0 0.00 0.00 0.00 75 1017.6
20260507171733 65 15 6.0 14.0 0.00 0.00 0.00 75 1017.6
20260507171729 65 23 5.0 13.0 0.00 0.00 0.00 75 1017.5
20260507170733 65 14 5.0 14.0 0.00 0.00 0.00 77 1017.5
20260507170729 65 23 6.0 14.0 0.00 0.00 0.00 76 1017.5
20260507170334 64 38 5.0 14.0 0.00 0.00 0.00 78 1017.4
20260507165833 63 350 6.0 13.0 0.00 0.00 0.00 78 1017.5
20260507164729 63 26 7.0 13.0 0.00 0.00 0.00 79 1017.8
20260507164234 62 33 6.0 12.0 0.00 0.00 0.00 79 1017.7
20260507164230 62 15 7.0 13.0 0.00 0.00 0.00 79 1017.8
20260507163228 62 10 5.0 12.0 0.00 0.00 0.00 80 1017.7
20260507162731 62 340 7.0 16.0 0.00 0.00 0.00 80 1017.8
20260507162727 62 61 6.0 16.0 0.00 0.00 0.00 80 1017.7
20260507161727 62 43 7.0 15.0 0.00 0.00 0.00 80 1017.8
20260507161228 62 17 6.0 14.0 0.00 0.00 0.00 80 1017.7
20260507160728 61 351 6.0 14.0 0.00 0.00 0.00 80 1017.5
20260507160227 61 50 7.0 15.0 0.00 0.00 0.00 80 1017.4
20260507155728 61 314 6.0 15.0 0.00 0.00 0.00 81 1017.4
20260507155227 61 339 5.0 13.0 0.00 0.00 0.00 81 1017.6
20260507154728 61 309 6.0 13.0 0.00 0.00 0.00 81 1017.8
20260507154228 61 19 7.0 15.0 0.00 0.01 0.00 81 1017.6
20260507153727 61 18 7.0 15.0 0.00 0.01 0.00 81 1017.3
20260507153228 61 29 7.0 14.0 0.00 0.01 0.00 81 1017.4
20260507152727 61 18 7.0 20.0 0.00 0.01 0.00 81 1017.4
20260507152228 61 329 8.0 20.0 0.00 0.01 0.00 81 1017.3
20260507151728 61 96 8.0 20.0 0.00 0.01 0.00 81 1017.2
20260507151227 61 30 8.0 20.0 0.00 0.01 0.00 81 1017.4
20260507150728 61 60 7.0 16.0 0.00 0.01 0.00 81 1017.4
20260507150227 61 38 6.0 16.0 0.00 0.01 0.00 82 1017.3
20260507145728 61 329 5.0 14.0 0.00 0.01 0.00 82 1017.1
20260507145228 61 10 5.0 19.0 0.00 0.01 0.00 82 1017.2
20260507144727 61 313 6.0 19.0 0.00 0.01 0.00 82 1017.1
20260507144232 61 17 8.0 21.0 0.00 0.01 0.00 82 1016.7
20260507144228 61 30 9.0 21.0 0.00 0.01 0.00 82 1016.8
20260507143226 61 331 7.0 15.0 0.00 0.01 0.00 82 1016.8
20260507142726 61 25 7.0 16.0 0.00 0.01 0.00 83 1016.6
20260507142225 61 317 9.0 20.0 0.00 0.01 0.00 83 1016.7
20260507141729 61 44 7.0 16.0 0.00 0.01 0.00 83 1016.4
20260507141725 61 351 8.0 20.0 0.00 0.01 0.00 82 1016.5
20260507140725 61 26 7.0 20.0 0.00 0.01 0.00 83 1016.6
20260507140230 61 29 5.0 12.0 0.00 0.01 0.00 82 1017.2
20260507140226 61 49 7.0 20.0 0.00 0.01 0.00 82 1017.0
20260507135226 61 34 6.0 18.0 0.00 0.01 0.00 82 1017.1
20260507134725 61 5 7.0 18.0 0.00 0.01 0.00 82 1016.8
20260507134230 61 347 8.0 16.0 0.00 0.01 0.00 81 1016.8
20260507134226 61 351 8.0 16.0 0.00 0.01 0.00 82 1016.4
20260507133226 62 31 7.0 14.0 0.00 0.01 0.00 81 1016.7
20260507132725 62 321 7.0 14.0 0.00 0.01 0.00 81 1016.7
20260507132225 62 12 6.0 14.0 0.00 0.01 0.00 81 1016.8
20260507131726 62 5 6.0 14.0 0.00 0.01 0.00 81 1016.7
20260507131224 62 47 7.0 14.0 0.00 0.01 0.00 81 1016.7
20260507130728 62 26 6.0 13.0 0.00 0.01 0.00 80 1016.9
20260507130724 62 19 7.0 13.0 0.00 0.01 0.00 80 1016.9
20260507125724 62 342 7.0 19.0 0.00 0.01 0.00 80 1016.5
20260507125224 62 340 8.0 19.0 0.00 0.01 0.00 80 1016.4
20260507124723 63 351 7.0 15.0 0.00 0.01 0.00 80 1016.6
20260507124228 63 44 7.0 14.0 0.00 0.01 0.00 79 1016.4
20260507124224 63 52 8.0 15.0 0.00 0.01 0.00 80 1016.3
20260507123223 63 17 5.0 10.0 0.00 0.01 0.00 79 1016.5
20260507122723 63 36 5.0 10.0 0.00 0.01 0.00 79 1016.5
20260507122223 63 38 4.0 10.0 0.00 0.01 0.00 79 1016.5
20260507121722 63 40 4.0 9.0 0.00 0.01 0.00 79 1016.5
20260507121225 63 24 6.0 13.0 0.00 0.01 0.00 79 1016.4
20260507121221 63 35 4.0 13.0 0.00 0.01 0.00 79 1016.4
20260507120221 63 21 6.0 15.0 0.00 0.01 0.00 79 1016.3
20260507115721 63 65 5.0 15.0 0.00 0.01 0.00 79 1016.0
20260507115221 63 15 5.0 12.0 0.00 0.01 0.00 79 1015.9
20260507114721 63 16 5.0 12.0 0.00 0.01 0.00 79 1015.7
20260507114225 63 336 5.0 13.0 0.00 0.01 0.00 79 1015.8
20260507114220 63 33 5.0 12.0 0.00 0.01 0.00 79 1015.9
20260507113221 64 0 4.0 13.0 0.00 0.01 0.00 79 1015.5
20260507112720 64 350 4.0 13.0 0.00 0.01 0.00 79 1015.4
20260507112221 64 348 4.0 13.0 0.00 0.01 0.00 79 1015.2
20260507111721 64 11 5.0 16.0 0.00 0.01 0.00 79 1015.1
20260507111225 63 24 5.0 14.0 0.00 0.01 0.00 79 1014.7
20260507111221 63 0 6.0 16.0 0.00 0.01 0.00 79 1014.7
20260507110221 63 13 6.0 15.0 0.00 0.01 0.00 79 1014.7
20260507105721 63 22 7.0 15.0 0.00 0.01 0.00 79 1014.8
20260507105221 63 45 6.0 15.0 0.00 0.01 0.00 78 1014.7
20260507104721 63 324 6.0 14.0 0.00 0.01 0.00 79 1014.5
20260507104220 64 51 4.0 11.0 0.00 0.01 0.00 79 1014.5
20260507103719 64 40 4.0 10.0 0.00 0.01 0.00 79 1014.7
20260507103219 63 24 5.0 14.0 0.00 0.01 0.00 79 1014.8
20260507102719 64 17 5.0 14.0 0.00 0.01 0.00 79 1014.7
20260507102219 64 346 5.0 10.0 0.00 0.01 0.00 79 1014.7
20260507101719 63 344 5.0 14.0 0.00 0.01 0.00 79 1014.8
20260507101219 63 11 6.0 16.0 0.00 0.01 0.00 79 1014.8
20260507100719 64 40 7.0 16.0 0.00 0.01 0.00 79 1014.6
20260507100219 64 11 7.0 14.0 0.00 0.01 0.00 79 1014.6
20260507095724 64 29 5.0 12.0 0.00 0.01 0.00 79 1014.7
20260507095720 64 306 6.0 12.0 0.00 0.01 0.00 79 1014.5
20260507094718 64 340 5.0 11.0 0.00 0.01 0.00 79 1014.8
20260507094217 64 71 6.0 16.0 0.00 0.01 0.00 79 1014.7
20260507093717 64 55 5.0 16.0 0.00 0.01 0.00 79 1014.7
20260507093217 64 38 4.0 10.0 0.00 0.01 0.00 79 1014.7
20260507092721 64 29 5.0 11.0 0.00 0.01 0.00 79 1014.8
20260507092717 64 22 4.0 11.0 0.00 0.01 0.00 79 1014.8
20260507091717 64 0 5.0 13.0 0.00 0.01 0.00 79 1014.8
20260507091221 64 30 4.0 11.0 0.00 0.01 0.00 79 1014.7
20260507091217 64 23 5.0 13.0 0.00 0.01 0.00 79 1014.7
20260507090217 64 25 5.0 11.0 0.00 0.01 0.00 79 1014.8
20260507085715 64 40 5.0 11.0 0.00 0.01 0.00 79 1014.8
20260507085215 64 13 5.0 12.0 0.00 0.01 0.00 79 1014.8
20260507084715 64 11 6.0 12.0 0.00 0.01 0.00 79 1014.8
20260507084215 64 310 5.0 11.0 0.00 0.01 0.00 79 1014.8
20260507083715 64 17 5.0 13.0 0.00 0.01 0.00 79 1014.8
20260507083216 64 41 5.0 13.0 0.00 0.01 0.00 79 1014.8
20260507082820 64 296 3.0 9.0 0.00 0.01 0.00 79 1014.7
20260507082720 64 321 3.0 9.0 0.00 0.01 0.00 79 1014.9
20260507082716 64 28 4.0 9.0 0.00 0.01 0.00 79 1014.9
20260507081218 64 42 4.0 9.0 0.00 0.01 0.00 79 1014.9
20260507081214 64 34 3.0 9.0 0.00 0.01 0.00 79 1015.1
20260507080817 64 18 4.0 10.0 0.00 0.01 0.00 79 1015.0
20260507075713 64 34 4.0 10.0 0.00 0.01 0.00 79 1014.9
20260507075213 64 36 4.0 11.0 0.00 0.01 0.00 79 1014.8
20260507074717 64 55 4.0 9.0 0.00 0.01 0.00 79 1014.8
20260507074713 64 337 5.0 11.0 0.00 0.01 0.00 79 1014.8
20260507074318 64 19 4.0 9.0 0.00 0.01 0.00 79 1014.9
20260507073217 64 355 3.0 10.0 0.00 0.01 0.00 79 1015.2
20260507073213 64 19 4.0 10.0 0.00 0.01 0.00 79 1015.1
20260507072213 65 344 3.0 9.0 0.00 0.01 0.00 79 1015.2
20260507071716 65 332 4.0 10.0 0.00 0.01 0.00 79 1015.4
20260507071711 65 36 4.0 10.0 0.00 0.01 0.00 79 1015.2
20260507070711 65 42 3.0 7.0 0.00 0.01 0.00 79 1015.4
20260507070211 65 346 2.0 7.0 0.00 0.01 0.00 79 1015.5
20260507065711 65 13 2.0 6.0 0.00 0.01 0.00 79 1015.4
20260507065211 65 59 4.0 10.0 0.00 0.01 0.00 79 1015.2
20260507064711 65 93 5.0 10.0 0.00 0.01 0.00 79 1015.2
20260507064211 65 45 5.0 11.0 0.00 0.01 0.00 79 1015.1
20260507063711 65 21 5.0 14.0 0.00 0.01 0.00 79 1014.9
20260507063211 65 348 4.0 14.0 0.00 0.01 0.00 79 1015.0
20260507062705 65 41 3.0 9.0 0.00 0.01 0.00 79 1015.0
20260507062205 65 27 2.0 6.0 0.00 0.01 0.00 79 1015.1
20260507061703 65 19 3.0 7.0 0.00 0.01 0.00 79 1015.1
20260507061203 65 28 3.0 9.0 0.00 0.01 0.00 79 1015.1
20260507060703 65 61 4.0 10.0 0.00 0.01 0.00 79 1014.9
20260507060204 65 62 4.0 12.0 0.00 0.01 0.00 79 1014.9
20260507055705 65 18 5.0 11.0 0.00 0.01 0.00 79 1014.8
20260507055701 65 36 4.0 12.0 0.00 0.01 0.00 79 1014.7
20260507054659 65 315 5.0 13.0 0.00 0.01 0.00 79 1014.7
20260507054200 65 101 4.0 13.0 0.00 0.01 0.00 79 1014.5
20260507053659 65 18 5.0 12.0 0.00 0.01 0.00 79 1014.4
20260507053157 65 34 6.0 15.0 0.00 0.01 0.00 79 1014.3
20260507052656 65 19 6.0 18.0 0.00 0.01 0.00 79 1014.3
20260507052155 65 28 7.0 18.0 0.00 0.01 0.00 79 1014.0
20260507051655 65 69 6.0 16.0 0.00 0.01 0.00 79 1014.1
20260507051159 65 341 6.0 12.0 0.00 0.01 0.00 79 1013.5
20260507051154 65 315 6.0 13.0 0.00 0.01 0.00 79 1013.7